Wisconsin Rapids, WI

10:47 PM CST on December 12, 2017 (GMT -0600)
Alexander Field South Wood County

Weather History for KISW - February, 2013

Change the Weather History Date:

Saturday, February 2, 2013

  Actual Average Record
Temperature  
Mean Temperature 5 °F -  
Max Temperature 10 °F 25 °F 48 °F (1987)
Min Temperature 0 °F 3 °F -30 °F (1985)
Degree Days  
Heating Degree Days 60    
Moisture  
Dew Point -4 °F    
Average Humidity 72    
Maximum Humidity 85    
Minimum Humidity 51    
Precipitation  
Precipitation 0.01 in - - ()
Sea Level Pressure  
Sea Level Pressure 30.12 in    
Wind  
Wind Speed 2 mph (NW)    
Max Wind Speed 9 mph    
Max Gust Speed -    
Visibility 9 miles    
Events Snow    
Averages and records for this station are not official NWS values.
T = Trace of Precipitation, MM = Missing Value Source: NWS Daily Summary

Daily Weather History Graph

Daily Weather History Graph

Search for Another Location

Airport or City:

Trip Planner

Search our weather history database for the weather conditions in past years. The results will help you decide how hot, cold, wet, or windy it might be!

Date:

Astronomy

Feb. 02, 2013 Rise Set
Actual Time 7:16 AM CST 5:10 PM CST
Civil Twilight 6:45 AM CST 5:41 PM CST
Nautical Twilight 6:10 AM CST 6:16 PM CST
Astronomical Twilight 5:36 AM CST 6:50 PM CST
Moon No Moon Rise 10:08 AM CST (2/2)
Length of Visible Light 10h 56m
Length of Day
9h 54m
Waning Gibbous, 59% of the Moon is Illuminated
Feb 2
Waning Gibbous
Feb 3
Last Quarter
Feb 10
New
Feb 17
First Quarter
Feb 25
Full

Hourly Weather History & Observations

Time (CST) Temp. Windchill Dew Point Humidity Pressure Visibility Wind Dir Wind Speed Gust Speed Precip Events Conditions
12:54 AM 1.9 °F - -2.9 °F 80% 30.15 in 8.0 mi Calm Calm - 0.00 in Snow Light Snow
1:54 AM 3.0 °F - -2.0 °F 80% 30.15 in 7.0 mi Calm Calm - 0.00 in   Overcast
3:06 AM 1.4 °F - -2.2 °F 85% 30.05 in 3.0 mi Calm Calm - 0.00 in Snow Light Snow
3:54 AM 3.0 °F - -2.9 °F 76% 30.12 in 6.0 mi Calm Calm - 0.00 in Snow Light Snow
4:54 AM 3.0 °F -4.4 °F -2.9 °F 76% 30.13 in 10.0 mi North 3.5 mph - 0.00 in   Overcast
5:54 AM 1.9 °F -9.2 °F -4.0 °F 76% 30.14 in 10.0 mi North 5.8 mph - N/A   Overcast
6:54 AM 1.9 °F -5.6 °F -4.0 °F 76% 30.16 in 10.0 mi NNW 3.5 mph - N/A   Overcast
7:54 AM 1.9 °F -7.6 °F -4.0 °F 76% 30.17 in 10.0 mi NNW 4.6 mph - N/A   Overcast
8:54 AM 1.9 °F -12.9 °F -6.0 °F 69% 30.19 in 10.0 mi North 9.2 mph - N/A   Overcast
9:54 AM 3.0 °F -9.3 °F -6.0 °F 66% 30.19 in 10.0 mi NNW 6.9 mph - 0.01 in   Clear
10:54 AM 5.0 °F -5.6 °F -6.0 °F 61% 30.19 in 10.0 mi NNW 5.8 mph - N/A   Clear
11:54 AM 8.1 °F -0.5 °F -5.1 °F 55% 30.17 in 10.0 mi NNW 4.6 mph - N/A   Clear
12:54 PM 10.0 °F - -2.9 °F 56% 30.16 in 10.0 mi Calm Calm - N/A   Clear
1:54 PM 9.0 °F - -4.0 °F 56% 30.15 in 10.0 mi Calm Calm - 0.00 in   Clear
2:54 PM 10.0 °F 3.6 °F -5.1 °F 51% 30.14 in 10.0 mi NNW 3.5 mph - N/A   Clear
3:54 PM 9.0 °F 2.4 °F -5.1 °F 53% 30.13 in 10.0 mi WNW 3.5 mph - N/A   Clear
4:54 PM 8.1 °F 1.4 °F -5.1 °F 55% 30.14 in 10.0 mi NW 3.5 mph - N/A   Partly Cloudy
5:54 PM 5.0 °F - -2.0 °F 73% 30.13 in 10.0 mi Calm Calm - N/A   Scattered Clouds
6:54 PM 1.9 °F - -2.9 °F 80% 30.13 in 10.0 mi Calm Calm - N/A   Clear
7:54 PM -0.9 °F - -5.1 °F 83% 30.11 in 10.0 mi Calm Calm - N/A   Clear
8:54 PM -0.9 °F - -6.0 °F 79% 30.09 in 10.0 mi Calm Calm - N/A   Mostly Cloudy
9:54 PM 1.9 °F -5.6 °F -2.9 °F 80% 30.07 in 10.0 mi SSW 3.5 mph - N/A   Overcast
10:54 PM 3.0 °F -4.4 °F -2.0 °F 80% 30.06 in 8.0 mi SSW 3.5 mph - 0.00 in   Overcast
11:25 PM 3.2 °F -4.2 °F -2.2 °F 78% 29.96 in 8.0 mi South 3.5 mph - 0.00 in   Overcast
11:36 PM 1.4 °F -6.2 °F -2.2 °F 85% 29.96 in 6.0 mi SSW 3.5 mph - 0.00 in   Overcast
11:54 PM 1.9 °F -5.6 °F -2.0 °F 83% 30.04 in 5.0 mi SSW 3.5 mph - 0.00 in Snow Light Snow